Weather History for San Jose, Costa Rica

Change the Weather History Date:

Wednesday, December 15, 2010

  Actual Average Record
Temperature  
Mean Temperature 69 °F -  
Max Temperature 75 °F 80 °F 86 °F (2005)
Min Temperature 63 °F 64 °F 57 °F (2005)
Cooling Degree Days 4    
Growing Degree Days 19 (Base 50)    
Moisture  
Dew Point 58 °F    
Average Humidity 69    
Maximum Humidity 78    
Minimum Humidity 44    
Precipitation  
Precipitation 0.00 in 0.03 in - ()
Sea Level Pressure  
Sea Level Pressure 29.97 in    
Wind  
Wind Speed 12 mph ()    
Max Wind Speed 21 mph    
Max Gust Speed 32 mph    
Visibility 6.8 miles    
Events      
Averages and records for this station are not official NWS values.
T = Trace of Precipitation, MM = Missing Value Source: Averaged Metar Reports

Daily Weather History Graph

Daily Weather History Graph

Search for Another Location

Airport:

Trip Planner

Search our weather history database for the weather conditions in past years. The results will help you decide how hot, cold, wet, or windy it might be!

Date:

Astronomy

Dec. 15, 2010 Rise Set
Actual Time 5:45 AM CST 5:18 PM CST
Civil Twilight 5:22 AM CST 5:41 PM CST
Nautical Twilight 4:56 AM CST 6:07 PM CST
Astronomical Twilight 4:30 AM CST 6:33 PM CST
Moon 12:49 PM CST (12/15) 12:42 AM CST (12/15)
Length of Visible Light 12h 18m
Length of Day
11h 32m
Waxing Gibbous, 70% of the Moon is Illuminated
Dec 15
Waxing Gibbous
Dec 21
Full
Dec 27
Last Quarter
Jan 4
New
Jan 12
First Quarter

Hourly Weather History & Observations

Time (CST) Temp. Dew Point Humidity Pressure Visibility Wind Dir Wind Speed Gust Speed Precip Events Conditions
12:00 AM 64.4 °F 57.2 °F 77% 30.00 in 6.2 mi ESE 11.5 mph - N/A   Scattered Clouds
1:00 AM 64.4 °F 57.2 °F 77% 29.99 in 6.2 mi SE 17.3 mph 32.2 mph N/A   Scattered Clouds
2:00 AM 64.4 °F 57.2 °F 77% 29.96 in 6.2 mi ESE 13.8 mph - N/A   Scattered Clouds
3:00 AM 64.4 °F 57.2 °F 77% 29.96 in 6.2 mi ESE 13.8 mph - N/A   Scattered Clouds
4:00 AM 64.4 °F 57.2 °F 77% 29.97 in 6.2 mi ESE 20.7 mph - N/A   Scattered Clouds
5:00 AM 64.4 °F 57.2 °F 77% 29.98 in 6.2 mi East 15.0 mph - N/A   Scattered Clouds
6:00 AM 64.4 °F 57.2 °F 77% 29.98 in 6.2 mi ENE 11.5 mph - N/A   Mostly Cloudy
7:00 AM 68.0 °F 57.2 °F 68% 30.02 in 6.2 mi ESE 11.5 mph - N/A   Mostly Cloudy
8:00 AM 68.0 °F 57.2 °F 68% 30.02 in 6.2 mi ESE 11.5 mph - N/A   Mostly Cloudy
9:00 AM 69.8 °F 57.2 °F 64% 30.02 in 6.2 mi ESE 11.5 mph - N/A   Mostly Cloudy
10:00 AM 73.4 °F 57.2 °F 57% 30.02 in 6.2 mi ESE 12.7 mph - N/A   Mostly Cloudy
11:00 AM 73.4 °F 57.2 °F 57% 29.99 in - ESE 13.8 mph - N/A   Clear
12:00 PM 75 °F 57 °F 44% 29.82 in 12 mi ESE 13.8 mph - -   Mostly Cloudy
12:00 PM 75.2 °F 57.2 °F 53% 29.97 in - ESE 13.8 mph - N/A   Clear
1:00 PM 73.4 °F 57.2 °F 57% 29.95 in - ESE 16.1 mph - N/A   Clear
2:00 PM 73.4 °F 59.0 °F 61% 29.93 in 6.2 mi ESE 11.5 mph - N/A   Mostly Cloudy
3:00 PM 72 °F 59 °F 55% 29.81 in 12 mi ESE 12.7 mph - -   Overcast
3:00 PM 71.6 °F 59.0 °F 64% 29.93 in 6.2 mi ESE 12.7 mph - N/A   Mostly Cloudy
4:00 PM 69.8 °F 59.0 °F 68% 29.95 in 6.2 mi ESE 15.0 mph - N/A   Mostly Cloudy
5:00 PM 68.0 °F 59.0 °F 73% 29.95 in 6.2 mi SE 13.8 mph - N/A   Mostly Cloudy
6:00 PM 66.2 °F 59.0 °F 78% 29.97 in 6.2 mi SE 11.5 mph - N/A   Mostly Cloudy
7:00 PM 68.0 °F 59.0 °F 73% 29.99 in 6.2 mi SE 10.4 mph - N/A   Mostly Cloudy
8:00 PM 68.0 °F 59.0 °F 73% 30.02 in - SE 11.5 mph - N/A   Clear
9:00 PM 66.2 °F 59.0 °F 78% 30.03 in - ESE 6.9 mph - N/A   Clear
10:00 PM 66.2 °F 59.0 °F 78% 30.03 in - ESE 8.1 mph - N/A   Clear
11:00 PM 66.2 °F 59.0 °F 78% 30.02 in - East 9.2 mph - N/A   Clear